Flag for Germany Weather past 2 weeks in Wertheim, Baden-Württemberg, Germany

Now
47 °F

Scattered clouds.


Feels Like: 45 °F
Forecast: 34 / 57 °F
Wind: 5 mph from Northeast

Location: Wuerzburg

Current Time: Apr 18, 2015 at 11:23:38 AM

Latest Report: Apr 18, 2015 at 11:00 AM


Visibility: 28 mi

Pressure: 30.30 "Hg

Humidity: 53%

Dew point: 31 °F

Location of WertheimLocation

Historic Weather in Wertheim — Graph

°F

Wertheim temperature yesterday

Maximum temperature yesterday: 58 °F (at 12:00 AM)
Minimum temperature yesterday: 45 °F (at 11:00 PM)
Average temperature yesterday: 52 °F

Past Weeks' High & Low Weather Summary

 TemperatureHumidityPressure
High76 °F (Apr 15, 4:00 PM)93% (Apr 9, 7:00 AM)30.68 "Hg (Apr 9, 7:00 AM)
Low30 °F (Apr 7, 6:00 AM)20% (Apr 15, 7:00 PM)29.86 "Hg (Apr 16, 7:00 PM)
Average50 °F57%30.26 "Hg
* Reported Apr 3 10:00 AM — Apr 18 10:00 AM, Wertheim, Weather by CustomWeather, © 2015

Note: Actual official high and low records may vary slightly from our data, if they occured in-between our weather recording intervals... More about our weather records

Advertising

Wertheim weather history for previous 24 hours

 ConditionsComfort  
Time TempWeatherWind HumidityBarometerVisibility
10:00 AM
Sat, Apr 18
47 °FPassing clouds.3 mph54%30.29 "Hg25 mi
9:00 AM44 °FPassing clouds.2 mph60%30.29 "Hg25 mi
8:00 AM40 °FScattered clouds.1 mph68%30.27 "Hg25 mi
7:00 AM36 °FPassing clouds.2 mph78%30.27 "Hg25 mi
6:00 AM37 °FPassing clouds.2 mph75%30.24 "Hg25 mi
5:00 AM37 °FClear.2 mph73%30.24 "Hg31 mi
4:00 AM39 °FClear.3 mph68%30.22 "Hg34 mi
3:00 AM40 °FClear.2 mph66%30.21 "Hg37 mi
2:00 AM41 °FClear.2 mph60%30.20 "Hg40 mi
1:00 AM42 °FClear.2 mph59%30.19 "Hg43 mi
12:00 AM42 °FClear.2 mph58%30.17 "Hg43 mi
11:00 PM
Fri, Apr 17
45 °FClear.2 mph51%30.14 "Hg43 mi
10:00 PM46 °FClear.2 mph50%30.12 "Hg43 mi
9:00 PM48 °FPassing clouds.5 mph48%30.09 "Hg28 mi
8:00 PM50 °FPartly sunny.8 mph46%30.05 "Hg28 mi
7:00 PM52 °FPartly sunny.8 mph44%30.01 "Hg28 mi
6:00 PM57 °FOvercast.7 mph35%29.96 "Hg28 mi
5:00 PM58 °FOvercast.5 mph37%29.95 "Hg25 mi
4:00 PM57 °FOvercast.2 mph50%29.96 "Hg22 mi
3:00 PM55 °FOvercast.2 mph51%29.96 "Hg22 mi
2:00 PM54 °FOvercast.3 mph53%29.97 "Hg22 mi
1:00 PM52 °FOvercast.5 mph60%29.97 "Hg22 mi
12:00 PM51 °FOvercast.3 mph65%29.97 "Hg11 mi
11:00 AM49 °FLight rain. Overcast.3 mph77%29.97 "Hg10 mi
Weather by CustomWeather, © 2015

See weather overviewHow to use our weather pages